Location: Gorze? G�rny
(49.8500°N, 19.5000°E)
Time: 13:13:37
(UTC+00:00)

USA 245 - Pass Details

Date: 13 May 2021
Orbit: 265 x 982 km, 97.9° (Epoch: 18 June)

Event Time Altitude Azimuth Distance (km) Brightness Sun altitude
Exits shadow 20:23:54 14° 231° (SW) 884 4.3 -15.4°
Maximum altitude 20:24:52 18° 264° (W) 769 4.4 -15.5°
Drops below altitude 10° 20:26:32 10° 312° (NW) 1,109 6.1 -15.6°
Sets 20:28:46 0° 333° (NNW) 1,986 8.0 -15.8°
